Location: Asheville, NC
(35.6000°N, 82.5500°W)
Time: 11:43:19
(UTC-04:00)

FO-29 - Pass Details

Date: 13 March 2018
Orbit: 799 x 1322 km, 98.5° (Epoch: 20 June)

Event Time Altitude Azimuth Distance (km) Brightness Sun altitude
Rises 22:02:13 0° 5° (N) 4,028 12.9 -30.0°
Reaches altitude 10° 22:04:50 10° 359° (N) 3,128 12.3 -30.5°
Maximum altitude 22:11:40 46° 290° (WNW) 1,653 11.0 -31.8°
Drops below altitude 10° 22:18:58 10° 220° (SW) 3,330 12.4 -33.2°
Sets 22:21:51 0° 215° (SW) 4,309 13.0 -33.7°
